Главная страница
METAR-TAF:

METAR-TAF

Аэропорты :

Cape May County Airport

Вайлдвуд, Нью-Джерси, США

широта: 39-01N, долгота: 074-55W, высота над уровнем моря: 7 м

Текущие метеонаблюдения

Эта сводка был подготовлена 52 минут назад, в 10:56 UTC
Ветер 9 Узел от восточно-юго-восточный
Температура 17°C
Влажность 72%
Давление 1023 hPa
Видимость: 16.1 км
ясное небо

METAR: KWWD 251056Z AUTO 11009KT 10SM CLR 17/12 A3022 RMK AO2 SLP235 T01670122

Время: 07:48 (11:48 UTC)


TAF: отсутствует

Метеонаблюдения и прогнозы для более 4000 аэропортов (сводки METAR и TAF).

Имеющиеся станции представлены на карте желтыми и красными точками.

Чтобы увидеть название станции, наведите на нее мышь.

Затем щелкните, чтобы увидеть метеонаблюдения и метеопрогнозы.

Управление картой: чтобы увеличить масштаб, щелкните зеленые кнопки с черным крестиком; чтобы уменьшить масштаб, щелкните зеленую кнопку с тире; для просмотра соседних карт щелкайте зеленые стрелки.


METAR-TAF: